(196) Philomela
ephemeris date magn radius delta ra dec elong phase
Today27 Jul 202612.53.155 AU4.164 AU08h09m+24°07'5.8°1.9°
Opposition24 Feb 202711.23.140 AU2.162 AU10h46m+19°10'169.5°3.3°
(196) Philomela - 2026-07-27
astro.vanbuitenen.nl


 
-1 year
-1 month
-1 day
Now
+1 day
+1 month
+1 year

The interactive orbit chart above shows the body's path through the solar system and its position at the given date. Green and blue lines are shown perpendicular to the ecliptic plane: Green if the path is above the ecliptic plane, blue if it is below. (Left-click and drag to rotate the view; Right-click and drag to move the view; Use scroll wheel to zoom in our out.)

The orbital elements of Philomela are:

            e (Eccentricity)                : 0.0126069
            a (Semimajor axis)              : 3.1181206
            i (Inclination)                 : 7.25449
            Ω (Longitude of ascending node) : 72.27836
            ω (Argument of perihelion)      : 207.78903
            M (Mean anomaly)                : 190.08248
            Epoch                           : 2026 Jun 09

            L (Longitude of perihelion)     : 99.87789
            B (Latitude of perihelion)      : -3.37509
            P (Orbital period in years)     : 5.51            
        

The light curve chart below shows the estimated development of the minor planet's magnitude.


The all-sky chart below shows the path of the minor planet over the same period as the light curve. The current position is marked yellow.





The following chart shows the path of the minor planet in the next few days. The field of view is optimized for (~10x50) binoculars and finderscopes.




Ephemerides:
Date       Time       RA (2000)    DEC (2000)    delta   radius  elong  phase   PA    magn
2026-07-27 00:00 UT   08 09 53.6   +24 07 50     4.164    3.155    5.8    1.9   325   12.5 
2026-07-27 10:22 UT   08 10 34.3   +24 06 08     4.164    3.155    6.0    1.9   324   12.5 
2026-07-28 00:00 UT   08 11 27.8   +24 03 53     4.163    3.155    6.2    2.0   322   12.5 
2026-07-29 00:00 UT   08 13 01.9   +23 59 53     4.161    3.155    6.7    2.2   319   12.6 
2026-07-30 00:00 UT   08 14 35.9   +23 55 51     4.160    3.155    7.2    2.3   316   12.6 
2026-07-31 00:00 UT   08 16 09.7   +23 51 46     4.158    3.155    7.7    2.5   314   12.6 
2026-08-01 00:00 UT   08 17 43.5   +23 47 39     4.156    3.155    8.2    2.6   312   12.6 
2026-08-02 00:00 UT   08 19 17.2   +23 43 29     4.154    3.155    8.7    2.8   310   12.6 
2026-08-03 00:00 UT   08 20 50.7   +23 39 17     4.152    3.155    9.3    3.0   309   12.6 
2026-08-04 00:00 UT   08 22 24.1   +23 35 02     4.150    3.155    9.8    3.1   308   12.6 
2026-08-05 00:00 UT   08 23 57.4   +23 30 45     4.148    3.155   10.4    3.3   306   12.6 
2026-08-06 00:00 UT   08 25 30.5   +23 26 26     4.145    3.155   10.9    3.5   305   12.6 
2026-08-07 00:00 UT   08 27 03.5   +23 22 04     4.142    3.155   11.5    3.7   304   12.6 
2026-08-08 00:00 UT   08 28 36.4   +23 17 40     4.140    3.155   12.0    3.8   304   12.7 
2026-08-09 00:00 UT   08 30 09.2   +23 13 14     4.137    3.155   12.6    4.0   303   12.7 
2026-08-10 00:00 UT   08 31 41.8   +23 08 46     4.133    3.155   13.2    4.2   302   12.7 
2026-08-11 00:00 UT   08 33 14.2   +23 04 16     4.130    3.155   13.8    4.4   302   12.7 
2026-08-12 00:00 UT   08 34 46.5   +22 59 44     4.127    3.155   14.3    4.6   301   12.7 
2026-08-13 00:00 UT   08 36 18.6   +22 55 09     4.123    3.155   14.9    4.7   301   12.7 
2026-08-14 00:00 UT   08 37 50.6   +22 50 33     4.119    3.155   15.5    4.9   300   12.7 
2026-08-15 00:00 UT   08 39 22.4   +22 45 55     4.115    3.155   16.1    5.1   300   12.7 
2026-08-16 00:00 UT   08 40 54.0   +22 41 14     4.111    3.155   16.6    5.3   299   12.7 
2026-08-17 00:00 UT   08 42 25.4   +22 36 32     4.107    3.155   17.2    5.5   299   12.7 
2026-08-18 00:00 UT   08 43 56.7   +22 31 49     4.103    3.154   17.8    5.6   299   12.7 
2026-08-19 00:00 UT   08 45 27.7   +22 27 03     4.099    3.154   18.4    5.8   298   12.7 


    Terminology:
            
    delta:  distance between minor planet and earth in AU
    radius: distance between minor planet and sun in AU
    magn:   magnitude (brightness) estimate    
    ra:     right ascension in hours (24h = 360deg)
    dec:    declination in degrees
    elong:  elongation in degrees (angle sun-earth-minor planet)    
    phase:  phase angle in degrees (angle sun-minor planet-earth)        
    AU:     Astronomical Unit (mean distance between earth and sun: 149597870.7 km
    

Orbital elements provided by the MPC (Minor Planet Center).
Calculations by a modified version of AAPlus, a C# implementation of the AA+ project by PJ Naughter from the algorithms presented in the book "Astronomical Algorithms" by Jean Meeus.
NGC2000 dso catalog and star labels from VizieR as provided by the Strasbourg astronomical Data Center.
Tycho2 catalog from the ESO archive.